Regional Weather Roundup
Issued by NWS

Home | Current Version | Previous Version | Text Only | Print | Product List | Glossary On
Versions: 1 2 3 4 5 6 7 8 9 10 11 12 13 14 15 16 17 18 19 20 21 22 23 24 25 26 27 28 29 30 31 32 33 34 35 36 37 38 39 40 41 42 43 44 45 46 47 48 49
000
ASPQ40 PGUM 021714
RWRPQ
WEATHER ROUNDUP FOR THE MARIANAS AND MICRONESIA
NATIONAL WEATHER SERVICE TIYAN GU
300 AM CHST WED JUN 03 2015

GUZ001>004-021800-
MARIANA ISLANDS-

CITY           SKY/WX    TMP DP  RH WIND       PRES   REMARKS
GUAM AIRPORT   PTCLDY    77  73  88 E8        29.85F
ANDERSEN AFB   CLOUDY    77  73  88 E14       29.85F
ROTA AIRPORT   NOT AVBL
TINIAN AP      NOT AVBL
SAIPAN AP      LGT RAIN  73  73 100 NE6       29.87F

$$

PMZ161-021800-
REPUBLIC OF PALAU-

CITY           SKY/WX    TMP DP  RH WIND       PRES   REMARKS
KOROR AP       MOCLDY    75  75 100 CALM      29.83F
KOROR WSO      PTCLDY    81  75  83 CALM      29.83S

$$

PMZ171>174-021800-
FEDERATED STATES OF MICRONESIA-

CITY           SKY/WX    TMP DP  RH WIND       PRES   REMARKS
YAP AIRPORT    MOCLDY    81  77  89 NE8       29.81F
CHUUK AP       CLOUDY    79  73  83 VRB6      29.81F
POHNPEI AP     NOT AVBL
POHNPEI WSO    CLOUDY    81  77  89 N2        29.84S
KOSRAE AP      NOT AVBL

$$

PMZ181-021800-
REPUBLIC OF THE MARSHALL ISLANDS-

CITY           SKY/WX    TMP DP  RH WIND       PRES   REMARKS
KWAJALEIN AP   PTCLDY    81  73  78 E14       29.82S
MAJURO AP      NOT AVBL
MAJURO WSO     CLOUDY    82  77  83 NE6       29.81R HX  91

$$



USA.gov is the U.S. government's official web portal to all federal, state and local government web resources and services.